• In Lithuania
  • List of Countries
  • For 7 days
  • Water Temperature
  • Satellite Maps
  • Weather Map
  • Weather Widgets
  • user-avatar
    Login

    Hourly Weather Faizabad

    Today, 26 September, Wednesday

    Time Temperature Precipitation Wind Pressure Humidity
    00:00 +27°C° 0 mm 2 mps 744 mmHg 84%
    01:00 +27°C° 0 mm 2 mps 744 mmHg 85%
    02:00 +27°C° 0 mm 2 mps 744 mmHg 86%
    03:00 +26°C° 0 mm 2 mps 744 mmHg 87%
    04:00 +26°C° 0 mm 2 mps 744 mmHg 87%
    05:00 +26°C° 0 mm 2 mps 744 mmHg 88%
    06:00 +27°C° 0 mm 2 mps 745 mmHg 84%
    07:00 +28°C° 0 mm 2 mps 746 mmHg 80%
    08:00 +30°C° 0 mm 2 mps 746 mmHg 76%
    09:00 +31°C° 0 mm 2 mps 746 mmHg 71%
    10:00 +32°C° 0 mm 2 mps 746 mmHg 65%
    11:00 +34°C° 0 mm 2 mps 746 mmHg 60%
    12:00 +34°C° 0 mm 2 mps 746 mmHg 58%
    13:00 +35°C° 0 mm 2 mps 745 mmHg 56%
    14:00 +35°C° 0 mm 2 mps 745 mmHg 55%
    15:00 +34°C° 0 mm 2 mps 744 mmHg 59%
    16:00 +32°C° 0 mm 2 mps 744 mmHg 63%
    17:00 +32°C° 0 mm 1 mps 744 mmHg 67%
    18:00 +31°C° 0 mm 1 mps 744 mmHg 67%
    19:00 +30°C° 0 mm 1 mps 745 mmHg 68%
    20:00 +30°C° 0 mm 1 mps 745 mmHg 69%
    21:00 +29°C° 0 mm 1 mps 745 mmHg 70%
    22:00 +29°C° 0 mm 1 mps 745 mmHg 72%
    23:00 +29°C° 0 mm 1 mps 745 mmHg 73%

    Tomorrow, 27 September, Thursday

    Time Temperature Precipitation Wind Pressure Humidity
    00:00 +28°C° 0 mm 1 mps 745 mmHg 74%
    01:00 +26°C° 0 mm 0 mps 745 mmHg 75%
    02:00 +26°C° 0 mm 0 mps 745 mmHg 76%
    03:00 +26°C° 0 mm 0 mps 745 mmHg 77%
    04:00 +26°C° 0 mm 0 mps 745 mmHg 78%
    05:00 +25°C° 0 mm 0 mps 745 mmHg 79%
    06:00 +29°C° 0.1 mm 1 mps 746 mmHg 75%
    07:00 +30°C° 0.1 mm 1 mps 746 mmHg 71%
    08:00 +31°C° 0.1 mm 1 mps 747 mmHg 68%
    09:00 +32°C° 0.2 mm 1 mps 747 mmHg 63%
    10:00 +33°C° 0.2 mm 1 mps 747 mmHg 59%
    11:00 +34°C° 0.2 mm 1 mps 747 mmHg 55%
    12:00 +34°C° 0.1 mm 1 mps 746 mmHg 55%
    13:00 +35°C° 0.1 mm 1 mps 746 mmHg 54%
    14:00 +35°C° 0.1 mm 1 mps 745 mmHg 54%
    15:00 +34°C° 0 mm 1 mps 745 mmHg 57%
    16:00 +33°C° 0 mm 1 mps 745 mmHg 60%
    17:00 +33°C° 0 mm 1 mps 744 mmHg 63%
    18:00 +32°C° 0 mm 1 mps 745 mmHg 64%
    19:00 +29°C° 0 mm 0 mps 745 mmHg 65%
    20:00 +28°C° 0 mm 0 mps 746 mmHg 66%
    21:00 +28°C° 0 mm 0 mps 746 mmHg 66%
    22:00 +28°C° 0 mm 0 mps 746 mmHg 67%
    23:00 +27°C° 0 mm 0 mps 746 mmHg 68%

    Day after tomorrow, 28 September, Friday

    Time Temperature Precipitation Wind Pressure Humidity
    00:00 +27°C° 0 mm 0 mps 745 mmHg 69%
    01:00 +27°C° 0 mm 0 mps 745 mmHg 71%
    02:00 +26°C° 0 mm 0 mps 745 mmHg 72%
    03:00 +26°C° 0 mm 0 mps 745 mmHg 73%
    04:00 +26°C° 0 mm 0 mps 745 mmHg 74%
    05:00 +28°C° 0 mm 1 mps 745 mmHg 75%
    06:00 +29°C° 0 mm 1 mps 746 mmHg 72%
    07:00 +30°C° 0 mm 1 mps 747 mmHg 68%
    08:00 +31°C° 0 mm 1 mps 747 mmHg 65%
    09:00 +31°C° 0 mm 0 mps 747 mmHg 60%
    10:00 +32°C° 0 mm 0 mps 747 mmHg 54%
    11:00 +34°C° 0 mm 0 mps 747 mmHg 49%
    12:00 +34°C° 0 mm 0 mps 747 mmHg 49%
    13:00 +33°C° 0 mm 0 mps 746 mmHg 49%
    14:00 +35°C° 0 mm 1 mps 745 mmHg 49%
    15:00 +35°C° 0 mm 1 mps 745 mmHg 52%
    16:00 +34°C° 0 mm 1 mps 745 mmHg 56%
    17:00 +33°C° 0 mm 1 mps 745 mmHg 59%
    18:00 +32°C° 0 mm 1 mps 745 mmHg 60%
    19:00 +32°C° 0 mm 1 mps 746 mmHg 60%
    20:00 +31°C° 0 mm 1 mps 746 mmHg 60%
    21:00 +31°C° 0 mm 1 mps 746 mmHg 61%
    22:00 +30°C° 0 mm 1 mps 746 mmHg 62%
    23:00 +30°C° 0 mm 1 mps 746 mmHg 63%

    29 September, Saturday

    Time Temperature Precipitation Wind Pressure Humidity
    00:00 +30°C° 0 mm 1 mps 746 mmHg 65%
    01:00 +29°C° 0 mm 1 mps 745 mmHg 66%
    02:00 +29°C° 0 mm 1 mps 745 mmHg 67%
    03:00 +28°C° 0 mm 1 mps 745 mmHg 68%
    04:00 +28°C° 0 mm 1 mps 746 mmHg 69%
    05:00 +26°C° 0 mm 0 mps 746 mmHg 70%
    06:00 +29°C° 0 mm 1 mps 746 mmHg 67%
    07:00 +30°C° 0 mm 1 mps 747 mmHg 63%
    08:00 +32°C° 0 mm 1 mps 748 mmHg 60%
    09:00 +33°C° 0 mm 1 mps 747 mmHg 55%
    10:00 +34°C° 0 mm 1 mps 747 mmHg 51%
    11:00 +37°C° 0 mm 2 mps 747 mmHg 46%
    12:00 +37°C° 0 mm 2 mps 747 mmHg 44%
    13:00 +37°C° 0 mm 2 mps 746 mmHg 42%
    14:00 +38°C° 0 mm 2 mps 745 mmHg 40%
    15:00 +37°C° 0 mm 2 mps 745 mmHg 44%
    16:00 +35°C° 0 mm 2 mps 745 mmHg 49%
    17:00 +33°C° 0 mm 1 mps 745 mmHg 53%
    18:00 +32°C° 0 mm 1 mps 745 mmHg 54%
    19:00 +31°C° 0 mm 1 mps 745 mmHg 54%
    20:00 +31°C° 0 mm 1 mps 745 mmHg 55%
    21:00 +30°C° 0 mm 1 mps 745 mmHg 56%
    22:00 +30°C° 0 mm 1 mps 745 mmHg 57%
    23:00 +29°C° 0 mm 1 mps 745 mmHg 58%

    30 September, Sunday

    Time Temperature Precipitation Wind Pressure Humidity
    00:00 +29°C° 0 mm 1 mps 745 mmHg 60%
    01:00 +28°C° 0 mm 1 mps 745 mmHg 61%
    02:00 +28°C° 0 mm 1 mps 744 mmHg 63%
    03:00 +28°C° 0 mm 1 mps 745 mmHg 64%
    04:00 +27°C° 0 mm 1 mps 745 mmHg 65%
    05:00 +27°C° 0 mm 1 mps 745 mmHg 67%
    06:00 +28°C° 0 mm 1 mps 746 mmHg 64%
    07:00 +30°C° 0 mm 1 mps 746 mmHg 61%
    08:00 +31°C° 0 mm 1 mps 747 mmHg 58%
    09:00 +33°C° 0 mm 1 mps 747 mmHg 53%
    10:00 +35°C° 0 mm 2 mps 747 mmHg 49%
    11:00 +36°C° 0 mm 2 mps 747 mmHg 44%
    12:00 +37°C° 0 mm 2 mps 746 mmHg 42%
    13:00 +37°C° 0 mm 2 mps 745 mmHg 40%
    14:00 +38°C° 0 mm 2 mps 744 mmHg 38%
    15:00 +36°C° 0 mm 2 mps 744 mmHg 43%
    16:00 +35°C° 0 mm 2 mps 744 mmHg 47%
    17:00 +33°C° 0 mm 1 mps 744 mmHg 52%
    18:00 +32°C° 0 mm 1 mps 744 mmHg 53%
    19:00 +31°C° 0 mm 1 mps 744 mmHg 54%
    20:00 +30°C° 0 mm 1 mps 745 mmHg 54%
    21:00 +29°C° 0 mm 1 mps 745 mmHg 56%
    22:00 +29°C° 0 mm 1 mps 745 mmHg 57%
    23:00 +26°C° 0 mm 0 mps 744 mmHg 58%

    1 October, Monday

    Time Temperature Precipitation Wind Pressure Humidity
    00:00 +26°C° 0 mm 0 mps 744 mmHg 59%
    01:00 +26°C° 0 mm 0 mps 744 mmHg 60%
    02:00 +25°C° 0 mm 0 mps 744 mmHg 61%
    03:00 +25°C° 0 mm 0 mps 744 mmHg 63%
    04:00 +24°C° 0 mm 0 mps 744 mmHg 64%
    05:00 +24°C° 0 mm 0 mps 745 mmHg 65%
    06:00 +25°C° 0 mm 0 mps 745 mmHg 62%
    07:00 +27°C° 0 mm 0 mps 746 mmHg 59%
    08:00 +28°C° 0 mm 0 mps 747 mmHg 56%
    09:00 +32°C° 0 mm 1 mps 747 mmHg 51%
    10:00 +34°C° 0 mm 1 mps 747 mmHg 46%
    11:00 +35°C° 0 mm 1 mps 746 mmHg 42%
    12:00 +36°C° 0 mm 1 mps 746 mmHg 39%
    13:00 +37°C° 0 mm 2 mps 745 mmHg 37%
    14:00 +37°C° 0 mm 2 mps 744 mmHg 34%
    15:00 +36°C° 0 mm 2 mps 744 mmHg 39%
    16:00 +34°C° 0 mm 1 mps 744 mmHg 43%
    17:00 +32°C° 0 mm 1 mps 744 mmHg 48%
    18:00 +31°C° 0 mm 1 mps 745 mmHg 48%
    19:00 +30°C° 0 mm 1 mps 745 mmHg 48%
    20:00 +29°C° 0 mm 1 mps 745 mmHg 49%
    21:00 +29°C° 0 mm 1 mps 745 mmHg 50%
    22:00 +28°C° 0 mm 1 mps 745 mmHg 51%
    23:00 +26°C° 0 mm 0 mps 745 mmHg 52%
    Show more